Regional Weather Roundup
Issued by NWS

Home | Current Version | Previous Version | Graphics & Text | Print | Product List | Glossary On
Versions: 1 2 3 4 5 6 7 8 9 10 11 12 13 14 15 16 17 18 19 20 21 22 23 24 25 26 27 28 29 30 31 32 33 34 35 36 37 38 39 40 41 42 43 44 45 46 47 48 49 50
000
ASUS43 KLSX 271659
RWRMO

WEATHER SUMMARY FOR MISSOURI
NATIONAL WEATHER SERVICE SPRINGFIELD MO
1100 AM CST FRI FEB 27 2015

NOTE: "FAIR" INDICATES FEW OR NO CLOUDS BELOW 12,000 FEET WITH NO
       SIGNIFICANT WEATHER AND/OR OBSTRUCTIONS TO VISIBILITY.
       CURRENT SKY AND/OR WEATHER CONDITIONS ARE NOT AVAILABLE FOR
       CHILLICOTHE AND FARMINGTON.

MOZ001>031-035>038-043-044-053-054-271800-
...NORTHERN AND WESTERN MISSOURI...

CITY           SKY/WX    TMP DP  RH WIND       PRES   REMARKS
KANSAS CTY INT CLOUDY    10  -1  61 NE6       30.64S WCI   0
KANSAS C DTWN  MOSUNNY   13  -2  51 VRB5      30.67F WCI   5
LEE`S SUMMIT   MOSUNNY   12  -2  53 NE6       30.65S WCI   3
ST JOSEPH      CLOUDY    10  -1  61 NW3       30.68F
CHILLICOTHE      N/A     11  -1  58 NE5       30.69R WCI   3
KIRKSVILLE     SUNNY      9  -3  58 CALM      30.65R

$$
MOZ066>068-077>081-088>096-101>105-271800-
...SOUTHWEST MISSOURI...

CITY           SKY/WX    TMP DP  RH WIND       PRES   REMARKS
SPRINGFIELD    CLOUDY    15   2  56 N8        30.56F WCI   4
JOPLIN         CLOUDY    15   1  53 NE9       30.60S WCI   3

$$
MOZ032>034-039>042-045>050-055>058-069>072-271800-
...CENTRAL MISSOURI...

CITY           SKY/WX    TMP DP  RH WIND       PRES   REMARKS
COLUMBIA       SUNNY     13  -1  54 N5        30.64S WCI   5
JEFFERSON CITY SUNNY     13  -3  49 N3        30.68S
ROLLA          SUNNY     13  -1  54 NE8       30.58S WCI   2
SEDALIA        SUNNY     13   0  56 VRB5      30.67S WCI   5
OSAGE BEACH    FAIR      14  -2  48 N7        30.63F WCI   4

$$
MOZ051-052-059>065-271800-
...EAST CENTRAL MISSOURI...

CITY           SKY/WX    TMP DP  RH WIND       PRES   REMARKS
ST LOUIS INTL  MOSUNNY   11  -2  56 N8        30.67S WCI  -1
SPIRIT OF STL  SUNNY     14  -2  49 NW6       30.67F WCI   5
ST CHARLES     SUNNY     10  -1  61 SW6       30.69S WCI   0

$$
MOZ072>076-082>087-097>100-106>115-271800-
...SOUTH CENTRAL AND SOUTHEAST MISSOURI...

CITY           SKY/WX    TMP DP  RH WIND       PRES   REMARKS
CAPE GIRARDEAU SUNNY     18   7  62 NE8       30.67R WCI   8
FARMINGTON     SUNNY     12   3  67 N7        30.64R WCI   2
POPLAR BLUFF   SUNNY     18   5  57 NE10      30.64F WCI   6
WEST PLAINS    SUNNY     16   0  49 NE9       30.56F WCI   4

$$


USA.gov is the U.S. government's official web portal to all federal, state and local government web resources and services.